Simultaneous Nadir Overpasses (SNOs) Predictions

Prediction of SNOs near equator between AQUA and NPP Satellite Orbit:

Table of predicted SNOs near equator for the next 14.0 days since TLE Epoch: 7/12/2014
Index Date (AQUA) Time (AQUA) AQUA Lat,Lon Date (NPP) Time (NPP) NPP Lat,Lon Distance(km) Time Diff (sec)
1 07/13/2014 20:09:09 29.98,-103.09 07/13/2014 19:59:58 30.16,-102.12 95.75 551
2 07/13/2014 20:58:31 -29.94, 64.57 07/13/2014 20:50:38 -30.08, 65.23 65.16 473
3 07/13/2014 21:48:02 29.98,-127.81 07/13/2014 21:41:26 30.04,-127.46 34.58 396
4 07/13/2014 22:37:25 -30.00, 39.84 07/13/2014 22:32:07 -30.02, 39.87 4.32 318
5 07/13/2014 23:21:08 9.05,-147.65 07/13/2014 23:16:58 9.05,-147.64 0.90 250
6 07/14/2014 00:03:35 16.03, 25.40 07/14/2014 00:00:32 16.02, 25.40 0.42 183
7 07/14/2014 00:51:02 -23.42,-165.26 07/14/2014 00:49:13 -23.47,-165.48 22.63 109
8 07/14/2014 01:39:09 27.96, 3.51 07/14/2014 01:38:36 28.04, 3.05 46.59 33
9 07/14/2014 02:28:07 -29.91, 171.64 07/14/2014 02:28:50 -30.07, 170.90 73.33 43
10 07/16/2014 12:25:35 29.99, 12.79 07/16/2014 12:16:57 30.17, 13.65 84.68 518
11 07/16/2014 13:14:57 -29.95,-179.54 07/16/2014 13:07:37 -30.09,-179.00 54.15 440
12 07/16/2014 14:04:28 29.99, -11.93 07/16/2014 13:58:25 30.05, -11.69 23.52 363
13 07/16/2014 14:52:15 -24.25, 157.17 07/16/2014 14:47:27 -24.25, 157.18 1.26 288
14 07/16/2014 15:35:04 0.00, -29.83 07/16/2014 15:31:23 -0.00, -29.83 0.37 221
15 07/16/2014 16:18:41 20.84, 142.39 07/16/2014 16:16:09 20.83, 142.33 5.91 152
16 07/16/2014 17:06:57 -25.33, -48.91 07/16/2014 17:05:40 -25.40, -49.21 31.08 77
17 07/16/2014 17:55:03 29.93, 119.91 07/16/2014 17:55:02 30.02, 119.36 53.82 1
18 07/16/2014 18:44:34 -29.90, -72.48 07/16/2014 18:45:50 -30.07, -73.33 84.39 76
19 07/19/2014 04:42:01 29.98, 128.68 07/19/2014 04:33:56 30.12, 129.43 73.55 485
20 07/19/2014 05:31:23 -29.94, -63.65 07/19/2014 05:24:36 -30.03, -63.22 42.94 407
21 07/19/2014 06:20:54 29.98, 103.96 07/19/2014 06:15:24 30.00, 104.09 12.39 330
22 07/19/2014 07:06:30 -16.35, -85.10 07/19/2014 07:02:12 -16.35, -85.10 0.18 258
23 07/19/2014 07:48:44 -10.04, 88.20 07/19/2014 07:45:32 -10.04, 88.21 0.99 192
24 07/19/2014 08:34:35 22.77,-101.26 07/19/2014 08:32:35 22.82,-101.40 14.90 120
25 07/19/2014 09:22:50 -27.32, 67.47 07/19/2014 09:22:06 -27.38, 67.08 39.27 44
26 07/19/2014 10:11:29 29.94,-124.20 07/19/2014 10:12:01 30.07,-124.86 64.99 32
27 07/19/2014 11:01:00 -29.90, 43.41 07/19/2014 11:02:49 -30.12, 42.45 95.60 109
28 07/21/2014 20:08:56 -29.96, 76.96 07/21/2014 20:00:08 -30.16, 77.89 92.68 528
29 07/21/2014 20:58:26 29.95,-115.42 07/21/2014 20:50:55 30.07,-114.79 62.19 451
30 07/21/2014 21:47:49 -29.96, 52.24 07/21/2014 21:41:36 -30.05, 52.55 31.58 373
31 07/21/2014 22:37:19 29.95,-140.14 07/21/2014 22:32:23 29.96,-140.13 1.03 296
32 07/21/2014 23:20:27 -7.38, 32.75 07/21/2014 23:16:39 -7.39, 32.75 0.59 228
33 07/22/2014 00:02:42 -18.94,-153.93 07/22/2014 00:00:00 -18.94,-153.92 0.44 162
34 07/22/2014 00:50:28 24.74, 15.10 07/22/2014 00:49:01 24.79, 14.87 23.80 87
35 07/22/2014 01:38:42 -29.34,-176.12 07/22/2014 01:38:31 -29.41,-176.60 47.05 11
36 07/22/2014 02:27:55 29.91, -8.32 07/22/2014 02:29:01 30.06, -9.09 76.47 66
37 07/24/2014 12:25:21 -29.96,-167.15 07/24/2014 12:17:07 -30.13,-166.33 81.13 494
38 07/24/2014 13:14:51 29.95, 0.48 07/24/2014 13:07:54 30.04, 0.99 50.65 417
39 07/24/2014 14:04:14 -29.96, 168.13 07/24/2014 13:58:35 -30.01, 168.33 19.95 339
40 07/24/2014 14:51:40 22.49, -22.39 07/24/2014 14:47:15 22.49, -22.39 0.10 265
41 07/24/2014 15:34:08 2.53, 150.76 07/24/201
